EW9634 Weather Reports


Display with metric or nautical units.
time (UTC)temp
F
wind
direction
speed
MPH
gust
MPH
rain 1hr
in
rain 24hr
in
rain mn
in
humidity
%
barometer
mb
20260906003423 88 0.0 0.0 0.00 0.00 0.00 68 1009.2
20260906002403 89 0.0 0.0 0.00 0.00 0.00 60 1009.2
20260906001404 90 0.0 0.0 0.00 0.00 0.00 62 1009.4
20260906000403 92 0.0 0.0 0.00 0.00 0.00 61 1009.3
20260905235403 93 0.0 0.0 0.00 0.00 0.00 55 1009.4
20260905234444 94 0.0 0.0 0.00 0.00 0.00 60 1009.5
20260905233403 95 0.0 0.0 0.00 0.00 0.00 56 1009.5
20260905232403 96 0.0 0.0 0.00 0.00 0.00 49 1009.5
20260905231404 96 0.0 0.0 0.00 0.00 0.00 50 1009.5
20260905230403 97 0.0 1.0 0.00 0.00 0.00 47 1009.5
20260905225423 97 113 1.0 1.0 0.00 0.00 0.00 47 1009.5
20260905224403 97 113 1.0 2.0 0.00 0.00 0.00 47 1009.5
20260905223403 96 113 1.0 2.0 0.00 0.00 0.00 50 1009.5
20260905222423 95 0.0 0.0 0.00 0.00 0.00 50 1009.6
20260905221403 96 113 1.0 2.0 0.00 0.00 0.00 47 1009.7
20260905220444 96 113 1.0 2.0 0.00 0.00 0.00 47 1009.8
20260905215403 96 0.0 1.0 0.00 0.00 0.00 49 1009.8
20260905214403 95 0.0 0.0 0.00 0.00 0.00 47 1009.8
20260905213403 97 135 1.0 1.0 0.00 0.00 0.00 48 1010.0
20260905212403 98 315 1.0 2.0 0.00 0.00 0.00 43 1010.1
20260905211403 98 270 3.0 4.0 0.00 0.00 0.00 44 1010.2
20260905210444 97 203 3.0 4.0 0.00 0.00 0.00 45 1010.3
20260905205403 99 45 1.0 2.0 0.00 0.00 0.00 45 1010.3
20260905204403 97 135 1.0 1.0 0.00 0.00 0.00 45 1010.5
20260905203403 98 113 3.0 6.0 0.00 0.00 0.00 46 1010.6
20260905202403 97 135 1.0 2.0 0.00 0.00 0.00 45 1010.9
20260905201424 97 225 1.0 2.0 0.00 0.00 0.00 47 1011.0
20260905200403 98 180 1.0 2.0 0.00 0.00 0.00 47 1011.1
20260905195403 98 203 2.0 4.0 0.00 0.00 0.00 45 1011.3
20260905194403 97 0.0 0.0 0.00 0.00 0.00 46 1011.3
20260905193403 97 135 6.0 8.0 0.00 0.00 0.00 48 1011.5
20260905192403 97 135 5.0 7.0 0.00 0.00 0.00 47 1011.5
20260905191402 96 158 2.0 4.0 0.00 0.00 0.00 48 1011.5
20260905190403 97 180 3.0 6.0 0.00 0.00 0.00 49 1011.7
20260905185443 97 68 1.0 3.0 0.00 0.00 0.00 49 1011.8
20260905184402 96 203 4.0 5.0 0.00 0.00 0.00 50 1011.9
20260905183403 96 0.0 1.0 0.00 0.00 0.00 49 1012.0
20260905182403 96 338 3.0 5.0 0.00 0.00 0.00 51 1012.2
20260905181423 95 225 3.0 5.0 0.00 0.00 0.00 50 1012.4
20260905180423 96 0.0 1.0 0.00 0.00 0.00 51 1012.4
20260905175423 95 180 1.0 4.0 0.00 0.00 0.00 51 1012.6
20260905174402 95 0.0 0.0 0.00 0.00 0.00 52 1012.8
20260905173402 95 203 1.0 3.0 0.00 0.00 0.00 52 1012.9
20260905172403 95 203 4.0 7.0 0.00 0.00 0.00 56 1013.0
20260905171403 94 135 2.0 3.0 0.00 0.00 0.00 53 1013.1
20260905170403 93 0.0 1.0 0.00 0.00 0.00 58 1013.2
20260905165403 93 180 2.0 4.0 0.00 0.00 0.00 58 1013.3
20260905164403 93 180 3.0 5.0 0.00 0.00 0.00 59 1013.3
20260905163403 93 203 1.0 2.0 0.00 0.00 0.00 59 1013.3
20260905162402 92 225 2.0 3.0 0.00 0.00 0.00 58 1013.2
20260905161402 91 180 3.0 4.0 0.00 0.00 0.00 62 1013.3
20260905160402 91 0.0 1.0 0.00 0.00 0.00 60 1013.2
20260905155423 90 0.0 1.0 0.00 0.00 0.00 62 1013.1
20260905154424 91 225 1.0 1.0 0.00 0.00 0.00 64 1013.2
20260905153402 90 0.0 1.0 0.00 0.00 0.00 63 1013.0
20260905152403 89 225 2.0 3.0 0.00 0.00 0.00 66 1012.8
20260905151403 88 0.0 1.0 0.00 0.00 0.00 68 1012.7
20260905150423 88 0.0 1.0 0.00 0.00 0.00 67 1012.8
20260905145402 87 0.0 1.0 0.00 0.00 0.00 70 1012.7
20260905144402 86 0.0 1.0 0.00 0.00 0.00 70 1012.6
20260905143402 85 225 1.0 2.0 0.00 0.00 0.00 71 1012.5
20260905142402 84 225 1.0 2.0 0.00 0.00 0.00 70 1012.4
20260905141423 84 0.0 0.0 0.00 0.00 0.00 74 1012.5
20260905140402 82 158 1.0 2.0 0.00 0.00 0.00 75 1012.4
20260905135402 81 158 1.0 1.0 0.00 0.00 0.00 75 1012.3
20260905134402 80 158 1.0 2.0 0.00 0.00 0.00 77 1012.2
20260905133402 78 0.0 1.0 0.00 0.00 0.00 83 1012.0
20260905132402 76 0.0 1.0 0.00 0.00 0.00 84 1011.9
20260905131402 76 0.0 0.0 0.00 0.00 0.00 83 1011.8
20260905130402 75 0.0 0.0 0.00 0.00 0.00 84 1011.7
20260905125402 74 0.0 0.0 0.00 0.00 0.00 87 1011.8
20260905124403 74 0.0 0.0 0.00 0.00 0.00 87 1011.7
20260905123402 73 0.0 0.0 0.00 0.00 0.00 87 1011.5
20260905122402 72 0.0 0.0 0.00 0.00 0.00 88 1011.5
20260905121442 72 0.0 0.0 0.00 0.00 0.00 88 1011.4
20260905120402 72 0.0 0.0 0.00 0.00 0.00 88 1011.3
20260905115402 72 0.0 1.0 0.00 0.00 0.00 86 1011.2
20260905114402 73 0.0 0.0 0.00 0.00 0.00 85 1011.2
20260905113422 73 180 1.0 1.0 0.00 0.00 0.00 85 1011.0
20260905112402 74 0.0 0.0 0.00 0.00 0.00 84 1011.0
20260905111402 74 0.0 0.0 0.00 0.00 0.00 84 1011.0
20260905110402 74 0.0 0.0 0.00 0.00 0.00 82 1011.1
20260905105422 74 0.0 1.0 0.00 0.00 0.00 84 1011.2
20260905104422 74 0.0 1.0 0.00 0.00 0.00 85 1011.1
20260905103402 73 0.0 0.0 0.00 0.00 0.00 89 1011.1
20260905102422 72 0.0 0.0 0.00 0.00 0.00 91 1010.8
20260905101401 72 0.0 0.0 0.00 0.00 0.00 91 1010.8
20260905100402 72 0.0 0.0 0.00 0.00 0.00 91 1010.8
20260905095403 72 0.0 0.0 0.00 0.00 0.00 91 1010.9
20260905094402 72 0.0 0.0 0.00 0.00 0.00 91 1010.9
20260905093402 72 0.0 0.0 0.00 0.00 0.00 91 1011.0
20260905092402 72 0.0 0.0 0.00 0.00 0.00 90 1010.9
20260905091401 72 0.0 0.0 0.00 0.00 0.00 90 1010.9
20260905090401 73 0.0 0.0 0.00 0.00 0.00 90 1010.9
20260905085402 73 0.0 0.0 0.00 0.00 0.00 88 1010.9
20260905084401 73 0.0 0.0 0.00 0.00 0.00 88 1010.8
20260905083401 73 0.0 0.0 0.00 0.00 0.00 89 1010.8
20260905082307 73 0.0 0.0 0.00 0.00 0.00 89 1010.8
20260905081304 73 0.0 0.0 0.00 0.00 0.00 90 1010.9
20260905080304 73 0.0 0.0 0.00 0.00 0.00 90 1010.8
20260905075306 73 0.0 0.0 0.00 0.00 0.00 89 1010.7
20260905074304 73 0.0 0.0 0.00 0.00 0.00 89 1010.7
20260905073324 74 0.0 0.0 0.00 0.00 0.00 87 1010.8
20260905072306 74 0.0 0.0 0.00 0.00 0.00 87 1010.7
20260905071324 73 0.0 0.0 0.00 0.00 0.00 88 1010.8
20260905070303 74 0.0 0.0 0.00 0.00 0.00 88 1010.9
20260905065306 74 0.0 0.0 0.00 0.00 0.00 87 1011.0
20260905064304 74 0.0 0.0 0.00 0.00 0.00 87 1011.0
20260905063303 74 0.0 0.0 0.00 0.00 0.00 87 1011.0
20260905062324 75 0.0 0.0 0.00 0.00 0.00 86 1011.1
20260905061303 76 0.0 0.0 0.00 0.00 0.00 83 1011.1
20260905060303 76 0.0 0.0 0.00 0.00 0.00 84 1011.2
20260905055306 75 0.0 0.0 0.00 0.00 0.00 85 1011.1
20260905054303 76 0.0 0.0 0.00 0.00 0.00 84 1011.0
20260905053303 76 0.0 0.0 0.00 0.00 0.00 83 1010.9
20260905052306 78 0.0 0.0 0.00 0.00 0.00 79 1010.9
20260905051303 78 0.0 0.0 0.00 0.00 0.00 79 1010.9
20260905050303 77 0.0 0.0 0.00 0.00 0.00 82 1011.0
20260905045422 76 0.0 0.0 0.00 0.00 0.00 85 1010.8
20260905044402 77 0.0 0.0 0.00 0.00 0.00 83 1010.7
20260905043402 77 0.0 0.0 0.00 0.00 0.00 84 1010.7
20260905042402 77 0.0 0.0 0.00 0.00 0.00 84 1010.8
20260905041402 76 0.0 0.0 0.00 0.00 0.00 85 1010.8
20260905040422 77 0.0 0.0 0.00 0.00 0.00 86 1010.8
20260905035401 77 0.0 0.0 0.00 0.00 0.00 84 1010.9
20260905034401 78 0.0 0.0 0.00 0.00 0.00 82 1010.9
20260905033402 79 0.0 0.0 0.00 0.00 0.00 79 1010.8
20260905032402 78 0.0 0.0 0.00 0.00 0.00 83 1010.8
20260905031402 79 0.0 0.0 0.00 0.00 0.00 83 1010.6
20260905030402 79 0.0 0.0 0.00 0.00 0.00 79 1010.6
20260905025401 79 0.0 0.0 0.00 0.00 0.00 80 1010.4
20260905024401 79 0.0 0.0 0.00 0.00 0.00 78 1010.4
20260905023421 80 0.0 0.0 0.00 0.00 0.00 81 1010.4
20260905022402 81 0.0 0.0 0.00 0.00 0.00 77 1010.2
20260905021401 81 0.0 0.0 0.00 0.00 0.00 76 1010.1
20260905020402 81 0.0 0.0 0.00 0.00 0.00 75 1009.9
20260905015403 81 0.0 0.0 0.00 0.00 0.00 75 1009.7
20260905014403 82 0.0 0.0 0.00 0.00 0.00 76 1009.6
20260905013423 82 0.0 0.0 0.00 0.00 0.00 76 1009.5
20260905012403 83 0.0 0.0 0.00 0.00 0.00 72 1009.3
20260905011403 83 0.0 0.0 0.00 0.00 0.00 72 1009.2
20260905010403 84 0.0 0.0 0.00 0.00 0.00 71 1009.1
20260905005404 86 0.0 0.0 0.00 0.00 0.00 70 1009.1
20260905004403 88 0.0 0.0 0.00 0.00 0.00 63 1009.2